Flag for Bosnia-Herzegovina Weather past 2 weeks in Sarajevo, Bosnia-Herzegovina

Now
73 °F

Passing clouds.


Feels Like: 77 °F
Forecast: 53 / 84 °F
Wind: 10 mph from Southwest

Location: Sarajevo / Butmir

Current Time: May 4, 2015 at 6:08:16 PM

Latest Report: May 4, 2015 at 5:30 PM


Visibility: N/A

Pressure: 30.01 "Hg

Humidity: 44%

Dew point: 50 °F

Location of SarajevoLocation

Historic Weather in Sarajevo — Graph

°F

Sarajevo temperature yesterday

Maximum temperature yesterday: 73 °F (at 2:30 PM)
Minimum temperature yesterday: 41 °F (at 6:30 AM)
Average temperature yesterday: 59 °F

Past Weeks' High & Low Weather Summary

 TemperatureHumidityPressure
High77 °F (May 4, 1:00 PM)100% (Apr 24, 8:00 PM)30.21 "Hg (Apr 24, 8:00 PM)
Low30 °F (Apr 20, 5:00 AM)19% (Apr 23, 5:00 PM)29.68 "Hg (Apr 28, 4:00 AM)
Average55 °F63%30.02 "Hg
* Reported Apr 19 5:00 PM — May 4 5:00 PM, Sarajevo, Weather by CustomWeather, © 2015

Note: Actual official high and low records may vary slightly from our data, if they occured in-between our weather recording intervals... More about our weather records

Advertising

Sarajevo weather history for previous 24 hours

 ConditionsComfort  
Time TempWeatherWind HumidityBarometerVisibility
5:00 PM
Mon, May 4
75 °FPassing clouds.9 mph47%30.01 "HgN/A
4:30 PM77 °FPassing clouds.9 mph47%29.98 "HgN/A
4:00 PM75 °FPassing clouds.9 mph50%30.01 "HgN/A
3:30 PM75 °FPassing clouds.8 mph47%29.98 "HgN/A
3:00 PM75 °FScattered clouds.7 mph47%30.01 "HgN/A
2:30 PM75 °FScattered clouds.7 mph44%30.01 "HgN/A
2:00 PM75 °FPassing clouds.7 mph47%30.01 "HgN/A
1:30 PM75 °FScattered clouds.7 mph44%30.01 "HgN/A
1:00 PM77 °FPassing clouds.7 mph44%30.01 "HgN/A
12:30 PM75 °FPassing clouds.2 mph50%30.01 "HgN/A
12:00 PM73 °FPassing clouds.2 mph53%30.01 "HgN/A
11:30 AM72 °FPassing clouds.2 mph57%30.01 "HgN/A
11:00 AM70 °FPassing clouds.1 mph60%30.04 "HgN/A
10:30 AM68 °FPassing clouds.2 mph60%30.04 "HgN/A
10:00 AM64 °FPassing clouds.2 mph68%30.04 "HgN/A
9:30 AM63 °FPassing clouds.1 mph73%30.04 "HgN/A
9:00 AM61 °FPartly sunny.1 mph77%30.04 "HgN/A
8:30 AM57 °FBroken clouds.No wind82%30.04 "HgN/A
8:00 AM55 °FPartly sunny.1 mph88%30.04 "HgN/A
7:30 AM55 °FPartly sunny.1 mph88%30.04 "HgN/A
7:00 AM54 °FPartly sunny.1 mph94%30.04 "HgN/A
6:30 AM54 °FPassing clouds.1 mph94%30.04 "HgN/A
6:00 AM52 °FPassing clouds.1 mph94%30.04 "HgN/A
5:30 AM52 °FPassing clouds.1 mph94%30.01 "HgN/A
5:00 AM52 °FPassing clouds.1 mph94%30.01 "HgN/A
4:00 AM54 °FPassing clouds.1 mph94%30.01 "HgN/A
3:00 AM54 °FPassing clouds.2 mph88%30.01 "HgN/A
2:00 AM54 °FClear.1 mph88%30.01 "Hg10 mi
1:00 AM54 °FClear.1 mph88%30.01 "Hg10 mi
12:00 AM55 °FClear.1 mph82%30.04 "Hg10 mi
11:00 PM
Sun, May 3
57 °FClear.1 mph77%30.01 "Hg10 mi
10:30 PM59 °FClear.2 mph72%30.01 "Hg10 mi
10:00 PM59 °FClear.2 mph77%30.01 "Hg10 mi
9:30 PM61 °FClear.2 mph72%30.01 "Hg10 mi
9:00 PM64 °FClear.2 mph60%29.98 "Hg10 mi
8:30 PM64 °FSunny.2 mph64%29.98 "Hg10 mi
8:00 PM68 °FSunny.2 mph53%29.95 "Hg10 mi
7:30 PM68 °FSunny.2 mph53%29.95 "Hg10 mi
7:00 PM68 °FSunny.1 mph53%29.95 "Hg10 mi
6:30 PM70 °FSunny.3 mph50%29.95 "Hg10 mi
6:00 PM68 °FPassing clouds.10 mph53%29.95 "HgN/A
Weather by CustomWeather, © 2015

See weather overviewHow to use our weather pages